Location: Cormont
(50.5693°N, 1.7416°E)
Time: 14:59:30
(UTC+00:00)

STARLINK-50 - Pass Details

Date: 21 October 2019
Orbit: 549 x 551 km, 53.0° (Epoch: 20 November)

Event Time Altitude Azimuth Distance (km) Brightness Sun altitude
Rises 18:28:36 0° 279° (W) 2,719 9.0 -16.4°
Reaches altitude 10° 18:30:51 10° 282° (WNW) 1,825 7.6 -16.7°
Maximum altitude 18:34:58 61° 4° (N) 626 3.8 -17.4°
Enters shadow 18:36:25 37° 69° (ENE) 870 4.1 -17.6°
